Regional Weather Roundup
Issued by NWS

Home | Current Version | Previous Version | Graphics & Text | Print | Product List | Glossary On
Versions: 1 2 3 4 5 6 7 8 9 10 11 12 13 14 15 16 17 18 19 20 21 22 23 24 25 26 27 28 29 30 31 32 33 34 35 36 37 38 39 40 41 42 43 44 45 46 47 48 49 50
888
ASUS43 KTOP 250959
RWRKS

WEATHER ROUNDUP FOR KANSAS
NATIONAL WEATHER SERVICE GOODLAND KS
500 AM CDT FRI MAY 25 2018

NOTE:  "FAIR" INDICATES FEW OR NO CLOUDS BELOW 12,000 FEET WITH NO
SIGNIFICANT WEATHER AND/OR OBSTRUCTIONS TO VISIBILITY.

KSZ001>006-013>018-027>032-041>047-251100-
NORTHWEST KANSAS

CITY           SKY/WX    TMP DP  RH WIND       PRES   REMARKS
GOODLAND       CLEAR     54  48  80 W6        30.01S
HAYS           CLEAR     59  57  93 SW6       29.94F
HILL CITY      CLEAR     54  53  97 W3        29.95S
RUSSELL        CLOUDY    60  60 100 S7        29.91F
$$

KSZ061>065-074>080-084>089-251100-
SOUTHWEST KANSAS

CITY           SKY/WX    TMP DP  RH WIND       PRES   REMARKS
DODGE CITY     CLEAR     61  55  81 NE6       29.96S
GARDEN CITY    CLEAR     64  60  87 E6        29.96F
GREAT BEND     PTCLDY    60  58  92 S7        29.94F
LIBERAL        CLEAR     65  62  90 SE6       29.94F
$$

KSZ066>073-081>083-090>101-251100-
SOUTHEAST KANSAS

CITY           SKY/WX    TMP DP  RH WIND       PRES   REMARKS
CHANUTE        MOCLDY    69  67  93 W8        29.96R
COFFEYVILLE    CLEAR     68  66  93 S5        29.93R
HUTCHINSON     CLOUDY    63  61  93 SE5       29.93F
MEDICINE LODGE   N/A     68  65  90 NE5       29.96S
NEWTON         TSTM      62  61  96 S7        29.94F
PARSONS        PTCLDY    68  67  96 SW5       29.95R
WICHITA INTL   CLOUDY    66  62  87 E10       29.94F
WICHITA JABRA  TSTM      64  62  93 VRB6      29.96F
WINFIELD       CLOUDY    71  67  87 NE9       30.00R
$$

KSZ007>012-019>026-033>040-048>060-102>105-251100-
NORTHEAST KANSAS

CITY           SKY/WX    TMP DP  RH WIND       PRES   REMARKS
CONCORDIA      LGT RAIN  68  58  70 SW12      29.87F
EMPORIA        CLOUDY    66  61  84 W10G20    29.94F
LAWRENCE       MOCLDY    68  67  96 E6        29.93S
MANHATTAN      CLOUDY    70  61  73 SE5       29.88F
OLATHE IND     CLOUDY    68  67  96 SE13      29.95R THUNDER
OLATHE EXE     TSTM      66  66 100 E18G24    29.93  VSB 3/4
SALINA         CLOUDY    67  63  87 SW13      29.88S
TOPEKA BILLARD PTCLDY    66  66 100 SE3       29.91S
TOPEKA FORBES  CLOUDY    66  65  96 SE5       29.92S
$$




USA.gov is the U.S. government's official web portal to all federal, state and local government web resources and services.